Weather History for Ruston, LA

Change the Weather History Date:

Tuesday, November 13, 2012

  Actual Average Record
Temperature  
Mean Temperature 43 °F -  
Max Temperature 56 °F 66 °F 91 °F (2001)
Min Temperature 30 °F 40 °F 28 °F (1968)
Degree Days  
Heating Degree Days 22    
Moisture  
Dew Point 31 °F    
Average Humidity 74    
Maximum Humidity 100    
Minimum Humidity 27    
Precipitation  
Precipitation 0.00 in - - ()
Sea Level Pressure  
Sea Level Pressure 30.47 in    
Wind  
Wind Speed 2 mph (NE)    
Max Wind Speed 13 mph    
Max Gust Speed 18 mph    
Visibility 10 miles    
Events      
Averages and records for this station are not official NWS values.
T = Trace of Precipitation, MM = Missing Value Source: NWS Daily Summary

Daily Weather History Graph

Daily Weather History Graph

Search for Another Location

Airport:

Trip Planner

Search our weather history database for the weather conditions in past years. The results will help you decide how hot, cold, wet, or windy it might be!

Date:

Astronomy

Nov. 13, 2012 Rise Set
Actual Time 6:38 AM CST 5:10 PM CST
Civil Twilight 6:12 AM CST 5:36 PM CST
Nautical Twilight 5:43 AM CST 6:06 PM CST
Astronomical Twilight 5:13 AM CST 6:35 PM CST
Moon 6:16 AM CST (11/13) 5:05 PM CST (11/13)
Length of Visible Light 11h 23m
Length of Day
10h 31m
Waning Crescent, 0% of the Moon is Illuminated
Nov 13
Waning Crescent
Nov 13
New
Nov 20
First Quarter
Nov 28
Full
Dec 6
Last Quarter

Hourly Weather History & Observations

Time (CST) Temp. Windchill Dew Point Humidity Pressure Visibility Wind Dir Wind Speed Gust Speed Precip Events Conditions
12:15 AM 32.0 °F - 32.0 °F 100% 30.50 in 7.0 mi Calm Calm - N/A   Clear
12:35 AM 31.8 °F - 31.8 °F 100% 30.51 in 7.0 mi Calm Calm - N/A   Clear
12:55 AM 31.5 °F - 31.5 °F 100% 30.50 in 7.0 mi Calm Calm - N/A   Clear
1:15 AM 31.1 °F - 31.1 °F 100% 30.50 in 7.0 mi Calm Calm - N/A   Clear
1:35 AM 31.3 °F - 31.3 °F 100% 30.51 in 7.0 mi Calm Calm - N/A   Clear
1:55 AM 30.9 °F - 30.9 °F 100% 30.51 in 7.0 mi Calm Calm - N/A   Clear
2:15 AM 31.1 °F - 31.1 °F 100% 30.51 in 10.0 mi Calm Calm - N/A   Clear
2:35 AM 30.9 °F - 30.9 °F 100% 30.51 in 10.0 mi Calm Calm - N/A   Clear
2:55 AM 30.9 °F - 30.9 °F 100% 30.52 in 10.0 mi Calm Calm - N/A   Clear
3:15 AM 30.9 °F - 30.9 °F 100% 30.52 in 10.0 mi Calm Calm - N/A   Clear
3:35 AM 31.1 °F - 31.1 °F 100% 30.52 in 10.0 mi Calm Calm - N/A   Clear
3:55 AM 31.5 °F - 31.5 °F 100% 30.52 in 10.0 mi Calm Calm - N/A   Clear
4:15 AM 31.5 °F - 31.5 °F 100% 30.52 in 10.0 mi Calm Calm - N/A   Clear
4:35 AM 31.5 °F - 31.5 °F 100% 30.52 in 10.0 mi Calm Calm - N/A   Clear
4:55 AM 30.9 °F - 30.9 °F 100% 30.53 in 10.0 mi Calm Calm - N/A   Clear
5:15 AM 30.6 °F - 30.6 °F 100% 30.53 in 10.0 mi Calm Calm - N/A   Clear
6:15 AM 30.6 °F - 30.6 °F 100% 30.53 in 10.0 mi Calm Calm - N/A   Clear
6:35 AM 30.2 °F - 30.2 °F 100% 30.53 in 10.0 mi Calm Calm - N/A   Clear
6:55 AM 30.0 °F - 30.0 °F 100% 30.54 in 10.0 mi Calm Calm - N/A   Clear
7:15 AM 31.1 °F - 31.1 °F 100% 30.54 in 10.0 mi Calm Calm - N/A   Clear
7:35 AM 32.4 °F - 32.4 °F 100% 30.55 in 10.0 mi Calm Calm - N/A   Clear
7:55 AM 34.7 °F - 34.3 °F 99% 30.56 in 10.0 mi Calm Calm - N/A   Clear
8:15 AM 37.9 °F 34.4 °F 34.0 °F 86% 30.56 in 10.0 mi NNE 4.6 mph - N/A   Clear
8:35 AM 40.8 °F 38.8 °F 34.5 °F 78% 30.56 in 10.0 mi NE 3.5 mph - N/A   Clear
8:55 AM 42.8 °F 40.1 °F 34.5 °F 73% 30.57 in 10.0 mi NE 4.6 mph - N/A   Clear
9:15 AM 45.1 °F 42.0 °F 32.4 °F 61% 30.57 in 10.0 mi NE 5.8 mph - N/A   Clear
9:35 AM 47.5 °F - 31.6 °F 54% 30.57 in 10.0 mi NE 6.9 mph - N/A   Clear
9:55 AM 49.1 °F - 28.8 °F 45% 30.57 in 10.0 mi NE 8.1 mph 17.3 mph N/A   Clear
10:15 AM 50.9 °F - 28.2 °F 42% 30.55 in 10.0 mi ENE 6.9 mph - N/A   Clear
10:35 AM 51.8 °F - 23.2 °F 33% 30.55 in 10.0 mi ENE 8.1 mph - N/A   Clear
10:55 AM 52.7 °F - 22.1 °F 30% 30.54 in 10.0 mi East 8.1 mph - N/A   Clear
11:15 AM 53.4 °F - 22.3 °F 30% 30.52 in 10.0 mi NE 9.2 mph - N/A   Clear
11:35 AM 54.1 °F - 22.5 °F 29% 30.51 in 10.0 mi NNE 10.4 mph 16.1 mph N/A   Clear
11:55 AM 54.1 °F - 22.1 °F 29% 30.49 in 10.0 mi NNE 11.5 mph 18.4 mph N/A   Clear
12:15 PM 54.5 °F - 21.4 °F 28% 30.47 in 10.0 mi NE 12.7 mph 16.1 mph N/A   Clear
12:55 PM 55.0 °F - 22.8 °F 29% 30.44 in 10.0 mi NE 6.9 mph 17.3 mph N/A   Clear
1:35 PM 56.5 °F - 22.6 °F 27% 30.42 in 10.0 mi NNE 10.4 mph - N/A   Clear
1:55 PM 55.9 °F - 22.5 °F 27% 30.42 in 10.0 mi NE 6.9 mph - N/A   Clear
2:15 PM 56.5 °F - 23.2 °F 28% 30.41 in 10.0 mi NNE 9.2 mph 17.3 mph N/A   Clear
2:35 PM 55.8 °F - 22.1 °F 27% 30.41 in 10.0 mi NNE 8.1 mph - N/A   Clear
2:55 PM 56.7 °F - 23.4 °F 28% 30.40 in 10.0 mi NNE 8.1 mph - N/A   Clear
3:15 PM 56.3 °F - 23.2 °F 28% 30.40 in 10.0 mi North 10.4 mph - N/A   Clear
3:35 PM 56.1 °F - 22.8 °F 28% 30.40 in 10.0 mi NE 8.1 mph - N/A   Clear
3:55 PM 54.7 °F - 23.0 °F 29% 30.41 in 10.0 mi NNE 8.1 mph - N/A   Clear
4:15 PM 53.8 °F - 24.1 °F 32% 30.41 in 10.0 mi NE 4.6 mph - N/A   Clear
4:35 PM 52.5 °F - 27.1 °F 38% 30.41 in 10.0 mi Calm Calm - N/A   Clear
4:55 PM 48.7 °F - 34.3 °F 58% 30.41 in 10.0 mi Calm Calm - N/A   Clear
5:15 PM 45.1 °F - 37.2 °F 74% 30.40 in 10.0 mi Calm Calm - N/A   Clear
5:35 PM 43.7 °F - 37.4 °F 78% 30.40 in 10.0 mi Calm Calm - N/A   Clear
5:55 PM 41.9 °F - 37.6 °F 85% 30.41 in 10.0 mi Calm Calm - N/A   Clear
6:15 PM 41.0 °F - 37.6 °F 88% 30.41 in 10.0 mi Calm Calm - N/A   Clear
6:35 PM 40.5 °F - 37.4 °F 89% 30.41 in 10.0 mi Calm Calm - N/A   Clear
6:55 PM 39.2 °F - 37.2 °F 93% 30.42 in 10.0 mi Calm Calm - N/A   Clear
7:15 PM 38.7 °F - 37.2 °F 95% 30.42 in 10.0 mi Calm Calm - N/A   Clear
7:35 PM 39.7 °F - 35.8 °F 86% 30.42 in 10.0 mi Calm Calm - N/A   Clear
7:55 PM 37.9 °F - 37.6 °F 99% 30.41 in 10.0 mi Calm Calm - N/A   Clear
8:15 PM 37.6 °F - 37.0 °F 98% 30.42 in 10.0 mi Calm Calm - N/A   Clear
8:35 PM 38.1 °F - 37.4 °F 97% 30.42 in 10.0 mi Calm Calm - N/A   Clear
8:55 PM 37.4 °F - 37.4 °F 100% 30.42 in 10.0 mi Calm Calm - N/A   Clear
9:15 PM 36.9 °F - 36.9 °F 100% 30.44 in 10.0 mi Calm Calm - N/A   Clear
9:35 PM 36.7 °F - 36.0 °F 97% 30.43 in 10.0 mi Calm Calm - N/A   Clear
9:55 PM 40.6 °F - 35.6 °F 82% 30.43 in 10.0 mi Calm Calm - N/A   Clear
10:15 PM 41.4 °F - 34.5 °F 77% 30.43 in 10.0 mi Calm Calm - N/A   Clear
10:35 PM 40.3 °F - 35.2 °F 82% 30.42 in 10.0 mi Calm Calm - N/A   Clear
10:55 PM 39.0 °F - 35.4 °F 87% 30.43 in 10.0 mi Calm Calm - N/A   Clear
11:15 PM 41.5 °F 39.6 °F 33.3 °F 72% 30.43 in 10.0 mi NE 3.5 mph - N/A   Clear
11:35 PM 38.7 °F - 34.2 °F 84% 30.42 in 10.0 mi Calm Calm - N/A   Clear
11:55 PM 40.3 °F 38.2 °F 34.0 °F 78% 30.42 in 10.0 mi NNE 3.5 mph - N/A   Clear